CW4054 Weather Reports


Display with metric or nautical units.
time (UTC)temp
F
wind
direction
speed
MPH
gust
MPH
rain 1hr
in
rain 24hr
in
rain mn
in
humidity
%
barometer
mb
20260510011336 60 171 0.0 0.0 0.00 0.00 0.00 80 1010.5
20260510010821 61 171 0.0 0.0 0.00 0.00 0.00 79 1010.4
20260510010326 61 171 0.0 0.0 0.00 0.00 0.00 79 1010.3
20260510005823 61 171 0.0 0.0 0.00 0.00 0.00 78 1010.3
20260510005331 62 171 0.0 0.0 0.00 0.00 0.00 78 1010.2
20260510004836 62 171 0.0 0.0 0.00 0.00 0.00 77 1010.3
20260510004321 63 171 0.0 0.0 0.00 0.00 0.00 76 1010.2
20260510003827 63 171 0.0 0.0 0.00 0.00 0.00 76 1010.2
20260510003332 63 171 0.0 0.0 0.00 0.00 0.00 75 1010.1
20260510002837 64 171 0.0 0.0 0.00 0.00 0.00 74 1010.1
20260510002326 64 171 0.0 0.0 0.00 0.00 0.00 74 1010.1
20260510001832 65 171 0.0 0.0 0.00 0.00 0.00 73 1010.1
20260510001359 65 171 0.0 0.0 0.00 0.00 0.00 73 1010.1
20260510000825 66 171 0.0 0.0 0.00 0.00 0.00 71 1010.0
20260510000333 66 171 0.0 0.0 0.00 0.00 0.00 70 1010.0
20260509235827 66 171 0.0 0.0 0.00 0.00 0.00 70 1009.9
20260509235353 67 171 0.0 0.0 0.00 0.00 0.00 69 1009.9
20260509234838 67 171 0.0 1.0 0.00 0.00 0.00 68 1009.8
20260509234323 68 171 0.0 2.0 0.00 0.00 0.00 67 1009.8
20260509233830 68 171 0.0 2.0 0.00 0.00 0.00 67 1009.8
20260509233336 68 175 0.0 1.0 0.00 0.00 0.00 66 1009.8
20260509232822 68 175 0.0 2.0 0.00 0.00 0.00 65 1009.7
20260509232332 69 175 0.0 2.0 0.00 0.00 0.00 64 1009.6
20260509231837 69 175 0.0 0.0 0.00 0.00 0.00 64 1009.7
20260509231324 69 175 0.0 2.0 0.00 0.00 0.00 62 1009.7
20260509230851 69 175 0.0 2.0 0.00 0.00 0.00 61 1009.7
20260509230338 69 175 0.0 3.0 0.00 0.00 0.00 62 1009.7
20260509225833 69 175 1.0 3.0 0.00 0.00 0.00 60 1009.7
20260509225359 69 173 0.0 2.0 0.00 0.00 0.00 62 1009.6
20260509224824 69 95 0.0 1.0 0.00 0.00 0.00 61 1009.6
20260509224330 69 95 0.0 2.0 0.00 0.00 0.00 62 1009.6
20260509223836 69 90 0.0 2.0 0.00 0.00 0.00 62 1009.6
20260509223323 69 90 0.0 1.0 0.00 0.00 0.00 62 1009.6
20260509222829 69 90 0.0 1.0 0.00 0.00 0.00 62 1009.5
20260509222340 69 90 0.0 1.0 0.00 0.00 0.00 61 1009.6
20260509221827 70 90 0.0 2.0 0.00 0.00 0.00 62 1009.6
20260509221332 69 90 0.0 2.0 0.00 0.00 0.00 62 1009.6
20260509220837 69 89 0.0 2.0 0.00 0.00 0.00 62 1009.7
20260509220345 69 89 0.0 2.0 0.00 0.00 0.00 62 1009.6
20260509215839 69 11 0.0 3.0 0.00 0.00 0.00 61 1009.7
20260509215324 69 11 1.0 3.0 0.00 0.00 0.00 62 1009.7
20260509214830 69 202 0.0 2.0 0.00 0.00 0.00 63 1009.8
20260509214337 69 202 0.0 2.0 0.00 0.00 0.00 62 1009.8
20260509213824 69 202 0.0 1.0 0.00 0.00 0.00 63 1009.8
20260509213329 69 202 0.0 0.0 0.00 0.00 0.00 61 1009.8
20260509212840 69 202 0.0 0.0 0.00 0.00 0.00 61 1009.7
20260509212324 69 202 0.0 0.0 0.00 0.00 0.00 61 1009.7
20260509211851 69 202 0.0 1.0 0.00 0.00 0.00 62 1009.8
20260509211336 69 202 0.0 1.0 0.00 0.00 0.00 60 1009.9
20260509210821 69 200 0.0 1.0 0.00 0.00 0.00 61 1009.8
20260509210327 69 200 0.0 0.0 0.00 0.00 0.00 62 1009.8
20260509205823 69 200 0.0 2.0 0.00 0.00 0.00 61 1009.9
20260509205349 69 200 0.0 2.0 0.00 0.00 0.00 62 1009.8
20260509204834 69 198 0.0 1.0 0.00 0.00 0.00 62 1009.8
20260509204340 69 198 0.0 1.0 0.00 0.00 0.00 61 1009.7
20260509203827 69 198 0.0 2.0 0.00 0.00 0.00 61 1009.8
20260509203333 70 74 0.0 2.0 0.00 0.00 0.00 59 1009.8
20260509202822 70 355 0.0 3.0 0.00 0.00 0.00 60 1009.8
20260509202329 70 355 0.0 3.0 0.00 0.00 0.00 62 1009.8
20260509201855 70 225 0.0 3.0 0.00 0.00 0.00 59 1009.7
20260509201320 69 225 1.0 8.0 0.00 0.00 0.00 60 1009.8
20260509200828 69 213 0.0 8.0 0.00 0.00 0.00 62 1009.8
20260509200334 69 217 1.0 5.0 0.00 0.00 0.00 61 1009.8
20260509195829 69 221 1.0 2.0 0.00 0.00 0.00 62 1009.9
20260509195334 69 222 0.0 8.0 0.00 0.00 0.00 61 1009.9
20260509194901 69 222 2.0 8.0 0.00 0.00 0.00 59 1010.1
20260509194325 69 223 1.0 5.0 0.00 0.00 0.00 60 1010.0
20260509193833 69 198 2.0 4.0 0.00 0.00 0.00 59 1010.2
20260509193323 69 209 1.0 5.0 0.00 0.00 0.00 60 1010.2
20260509192831 69 209 1.0 5.0 0.00 0.00 0.00 60 1010.2
20260509192335 69 210 1.0 5.0 0.00 0.00 0.00 58 1010.4
20260509191335 69 128 0.0 2.0 0.00 0.00 0.00 57 1010.4
20260509190821 69 128 0.0 4.0 0.00 0.00 0.00 57 1010.4
20260509190327 69 130 0.0 4.0 0.00 0.00 0.00 58 1010.5
20260509185824 68 12 0.0 3.0 0.00 0.00 0.00 63 1010.5
20260509185331 68 12 1.0 3.0 0.00 0.00 0.00 57 1010.6
20260509184838 68 13 0.0 4.0 0.00 0.00 0.00 61 1010.6
20260509184327 68 13 2.0 4.0 0.00 0.00 0.00 58 1010.5
20260509183834 68 128 0.0 4.0 0.00 0.00 0.00 62 1010.6
20260509183338 67 128 1.0 4.0 0.00 0.00 0.00 61 1010.8
20260509182826 66 355 0.0 3.0 0.00 0.00 0.00 64 1010.7
20260509182353 66 346 0.0 3.0 0.00 0.00 0.00 63 1010.9
20260509181857 66 260 0.0 2.0 0.00 0.00 0.00 61 1011.1
20260509181321 65 252 0.0 0.0 0.00 0.00 0.00 61 1011.4
20260509180828 65 252 0.0 1.0 0.00 0.00 0.00 60 1011.4
20260509180354 65 252 0.0 2.0 0.00 0.00 0.00 63 1011.4
20260509175829 65 252 0.0 2.0 0.00 0.00 0.00 60 1011.5
20260509175334 64 252 0.0 1.0 0.00 0.00 0.00 64 1011.5
20260509174900 64 251 0.0 1.0 0.00 0.00 0.00 65 1011.7
20260509174324 64 251 0.0 2.0 0.00 0.00 0.00 63 1011.8
20260509173830 64 250 0.0 3.0 0.00 0.00 0.00 60 1011.8
20260509173340 64 250 0.0 5.0 0.00 0.00 0.00 58 1011.9
20260509172826 65 250 2.0 5.0 0.00 0.00 0.00 59 1011.8
20260509172333 65 242 0.0 1.0 0.00 0.00 0.00 62 1011.7
20260509171838 65 242 0.0 1.0 0.00 0.00 0.00 60 1011.8
20260509171324 65 242 0.0 1.0 0.00 0.00 0.00 59 1011.8
20260509170851 66 242 0.0 2.0 0.00 0.00 0.00 60 1011.7
20260509170355 65 242 0.0 2.0 0.00 0.00 0.00 59 1011.7
20260509165830 65 244 0.0 3.0 0.00 0.00 0.00 59 1011.7
20260509165335 65 244 1.0 3.0 0.00 0.00 0.00 57 1011.8
20260509164820 65 244 0.0 5.0 0.00 0.00 0.00 55 1011.8
20260509164326 66 244 1.0 5.0 0.00 0.00 0.00 53 1011.8
20260509163833 66 200 0.0 2.0 0.00 0.00 0.00 56 1011.7
20260509163323 66 203 1.0 2.0 0.00 0.00 0.00 55 1011.8
20260509162829 66 244 0.0 1.0 0.00 0.00 0.00 56 1011.8
20260509162335 65 244 0.0 3.0 0.00 0.00 0.00 57 1011.8
20260509161822 65 244 2.0 3.0 0.00 0.00 0.00 54 1011.8
20260509161330 65 242 1.0 4.0 0.00 0.00 0.00 53 1011.9
20260509160836 65 242 2.0 4.0 0.00 0.00 0.00 54 1011.9
20260509160401 65 222 0.0 3.0 0.00 0.00 0.00 55 1011.8
20260509155835 65 213 0.0 6.0 0.00 0.00 0.00 58 1011.8
20260509155322 65 212 2.0 8.0 0.00 0.00 0.00 54 1011.9
20260509154828 65 227 1.0 8.0 0.00 0.00 0.00 56 1011.8
20260509154354 65 252 1.0 0.0 0.00 0.00 0.00 56 1011.7
20260509153858 65 219 1.0 5.0 0.00 0.00 0.00 55 1011.9
20260509153344 65 242 3.0 5.0 0.00 0.00 0.00 55 1011.9
20260509152832 64 252 0.0 4.0 0.00 0.00 0.00 59 1011.9
20260509152338 64 249 1.0 4.0 0.00 0.00 0.00 56 1012.0
20260509151823 63 260 1.0 4.0 0.00 0.00 0.00 61 1012.0
20260509151349 63 257 1.0 6.0 0.00 0.00 0.00 57 1012.1
20260509150833 62 249 3.0 6.0 0.00 0.00 0.00 58 1012.1
20260509150321 62 208 0.0 6.0 0.00 0.00 0.00 59 1012.2
20260509145838 62 206 1.0 6.0 0.00 0.00 0.00 58 1012.3
20260509145326 62 205 1.0 5.0 0.00 0.00 0.00 59 1012.3
20260509144833 61 213 2.0 5.0 0.00 0.00 0.00 61 1012.3
20260509144321 61 217 0.0 5.0 0.00 0.00 0.00 61 1012.3
20260509143845 61 177 0.0 4.0 0.00 0.00 0.00 61 1012.4
20260509143331 61 236 1.0 8.0 0.00 0.00 0.00 60 1012.5
20260509142841 61 236 3.0 8.0 0.00 0.00 0.00 60 1012.5
20260509142327 61 223 1.0 6.0 0.00 0.00 0.00 61 1012.3
20260509141833 61 215 1.0 6.0 0.00 0.00 0.00 62 1012.3
20260509141401 61 219 1.0 6.0 0.00 0.00 0.00 60 1012.2
20260509140825 61 230 0.0 7.0 0.00 0.00 0.00 61 1012.2
20260509140330 61 229 1.0 7.0 0.00 0.00 0.00 61 1012.2
20260509135826 61 213 1.0 5.0 0.00 0.00 0.00 61 1012.2
20260509135332 61 201 2.0 8.0 0.00 0.00 0.00 61 1012.2
20260509134838 61 216 1.0 8.0 0.00 0.00 0.00 62 1012.3
20260509134326 60 233 3.0 8.0 0.00 0.00 0.00 60 1012.4
20260509133831 60 208 0.0 6.0 0.00 0.00 0.00 63 1012.3
20260509133322 60 201 3.0 6.0 0.00 0.00 0.00 61 1012.3
20260509132827 60 224 1.0 4.0 0.00 0.00 0.00 61 1012.3
20260509132333 60 221 0.0 5.0 0.00 0.00 0.00 62 1012.3
20260509131836 60 242 2.0 5.0 0.00 0.00 0.00 61 1012.3
20260509131323 60 230 2.0 5.0 0.00 0.00 0.00 61 1012.3
20260509130849 60 186 2.0 3.0 0.00 0.00 0.00 63 1012.3
20260509130336 60 184 0.0 3.0 0.00 0.00 0.00 62 1012.3
20260509125851 60 184 1.0 3.0 0.00 0.00 0.00 63 1012.4
20260509125335 59 183 1.0 3.0 0.00 0.00 0.00 62 1012.5
20260509124900 59 180 0.0 2.0 0.00 0.00 0.00 65 1012.4
20260509124326 59 180 0.0 2.0 0.00 0.00 0.00 64 1012.4
20260509123832 59 180 0.0 2.0 0.00 0.00 0.00 63 1012.4
20260509123338 59 179 0.0 1.0 0.00 0.00 0.00 64 1012.5
20260509122843 59 179 0.0 1.0 0.00 0.00 0.00 63 1012.6
20260509122331 59 179 0.0 1.0 0.00 0.00 0.00 63 1012.4
20260509121857 58 179 0.0 1.0 0.00 0.00 0.00 62 1012.5
20260509121321 58 179 0.0 0.0 0.00 0.00 0.00 63 1012.4
20260509120827 58 181 0.0 2.0 0.00 0.00 0.00 62 1012.6
20260509120335 58 237 0.0 2.0 0.00 0.00 0.00 62 1012.6
20260509115832 58 237 1.0 2.0 0.00 0.00 0.00 61 1012.6
20260509115337 58 237 0.0 1.0 0.00 0.00 0.00 63 1012.4
20260509114822 57 237 0.0 1.0 0.00 0.00 0.00 64 1012.5
20260509114329 57 237 0.0 0.0 0.00 0.00 0.00 66 1012.3
20260509113835 57 237 0.0 0.0 0.00 0.00 0.00 66 1012.1
20260509113320 56 237 0.0 2.0 0.00 0.00 0.00 65 1012.2
20260509112830 56 237 0.0 2.0 0.00 0.00 0.00 67 1012.1
20260509112357 56 237 0.0 0.0 0.00 0.00 0.00 69 1012.1
20260509111821 56 237 0.0 0.0 0.00 0.00 0.00 67 1012.0
20260509111327 56 237 0.0 0.0 0.00 0.00 0.00 67 1011.9
20260509110835 56 237 0.0 0.0 0.00 0.00 0.00 67 1011.9
20260509110322 56 237 0.0 0.0 0.00 0.00 0.00 69 1011.9
20260509105837 56 237 0.0 0.0 0.00 0.00 0.00 68 1011.8
20260509105324 56 237 0.0 0.0 0.00 0.00 0.00 67 1011.7
20260509104830 56 237 0.0 0.0 0.00 0.00 0.00 67 1011.6
20260509104337 56 237 0.0 0.0 0.00 0.00 0.00 66 1011.7
20260509103821 56 237 0.0 0.0 0.00 0.00 0.00 66 1011.6
20260509103331 56 237 0.0 0.0 0.00 0.00 0.00 66 1011.6
20260509102836 56 237 0.0 0.0 0.00 0.00 0.00 66 1011.7
20260509102343 56 237 0.0 1.0 0.00 0.00 0.00 64 1011.6
20260509101830 56 237 0.0 2.0 0.00 0.00 0.00 61 1011.7
20260509101403 56 237 0.0 2.0 0.00 0.00 0.00 62 1011.7
20260509100836 57 237 0.0 1.0 0.00 0.00 0.00 61 1011.7
20260509100325 57 237 0.0 1.0 0.00 0.00 0.00 62 1011.6
20260509095821 57 237 0.0 1.0 0.00 0.00 0.00 62 1011.5
20260509095347 57 237 0.0 3.0 0.00 0.00 0.00 61 1011.6
20260509094832 57 237 0.0 3.0 0.00 0.00 0.00 61 1011.6
20260509093832 56 238 1.0 3.0 0.00 0.00 0.00 61 1011.5
20260509093320 56 242 0.0 3.0 0.00 0.00 0.00 62 1011.5
20260509092827 56 228 0.0 5.0 0.00 0.00 0.00 63 1011.7
20260509092333 56 228 1.0 6.0 0.00 0.00 0.00 62 1011.7
20260509091821 56 258 1.0 6.0 0.00 0.00 0.00 62 1011.7
20260509091328 56 213 0.0 2.0 0.00 0.00 0.00 63 1011.8
20260509090045 56 210 0.0 4.0 0.00 0.00 0.00 63 1011.7
20260509085351 56 230 1.0 4.0 0.00 0.00 0.00 64 1011.9
20260509084837 56 231 1.0 4.0 0.00 0.00 0.00 64 1011.9
20260509084429 56 208 2.0 5.0 0.00 0.00 0.00 65 1012.0
20260509083823 56 221 2.0 5.0 0.00 0.00 0.00 65 1012.0
20260509083329 55 218 1.0 3.0 0.00 0.00 0.00 66 1012.0
20260509082828 55 220 1.0 3.0 0.00 0.00 0.00 66 1012.0
20260509082356 55 218 0.0 5.0 0.00 0.00 0.00 67 1012.1
20260509081339 54 226 0.0 1.0 0.00 0.00 0.00 69 1012.1
20260509080824 54 226 0.0 2.0 0.00 0.00 0.00 69 1012.1
20260509080331 54 226 0.0 2.0 0.00 0.00 0.00 70 1012.1
20260509075825 54 226 0.0 1.0 0.00 0.00 0.00 70 1012.1
20260509075351 53 226 0.0 3.0 0.00 0.00 0.00 72 1012.1
20260509074334 53 226 0.0 1.0 0.00 0.00 0.00 75 1012.2
20260509074000 53 226 0.0 0.0 0.00 0.00 0.00 74 1012.2
20260509073321 53 226 0.0 0.0 0.00 0.00 0.00 76 1012.1
20260509072826 53 226 0.0 0.0 0.00 0.00 0.00 77 1012.2
20260509072333 53 226 0.0 0.0 0.00 0.00 0.00 75 1012.2
20260509071830 53 226 0.0 0.0 0.00 0.00 0.00 75 1012.2
20260509071340 53 226 0.0 0.0 0.00 0.00 0.00 75 1012.1
20260509070826 53 226 0.0 0.0 0.00 0.00 0.00 73 1012.2
20260509070330 53 226 0.0 2.0 0.00 0.00 0.00 72 1012.2
20260509065845 52 226 0.0 2.0 0.00 0.00 0.00 73 1012.2
20260509065348 52 226 0.0 0.0 0.00 0.00 0.00 74 1012.3
20260509064853 52 226 0.0 0.0 0.00 0.00 0.00 75 1012.3
20260509064355 52 227 0.0 0.0 0.00 0.00 0.00 75 1012.3
20260509063900 52 226 0.0 0.0 0.00 0.00 0.00 75 1012.4
20260509063323 52 226 0.0 0.0 0.00 0.00 0.00 75 1012.4
20260509062847 51 226 0.0 0.0 0.00 0.00 0.00 75 1012.4
20260509062332 51 226 0.0 0.0 0.00 0.00 0.00 75 1012.4
20260509061838 51 226 0.0 0.0 0.00 0.00 0.00 75 1012.4
20260509061324 51 226 0.0 0.0 0.00 0.00 0.00 76 1012.5
20260509060335 51 226 0.0 0.0 0.00 0.00 0.00 76 1012.6
20260509055853 51 226 0.0 0.0 0.00 0.00 0.00 75 1012.6
20260509055324 51 226 0.0 0.0 0.00 0.00 0.00 76 1012.7
20260509054850 51 226 0.0 0.0 0.00 0.00 0.00 75 1012.7
20260509054339 51 226 0.0 0.0 0.00 0.00 0.00 74 1012.8
20260509054212 51 226 0.0 0.0 0.00 0.00 0.00 74 1012.8
20260509053357 51 227 0.0 0.0 0.00 0.00 0.00 74 1012.8
20260509052822 51 226 0.0 0.0 0.00 0.00 0.00 74 1012.9
20260509052348 52 226 0.0 0.0 0.00 0.00 0.00 74 1012.9
20260509051829 52 226 0.0 0.0 0.00 0.00 0.00 73 1012.9
20260509051335 52 226 0.0 0.0 0.00 0.00 0.00 73 1012.9
20260509050843 52 226 0.0 0.0 0.00 0.00 0.00 73 1012.9
20260509050444 52 226 0.0 0.0 0.00 0.00 0.00 73 1012.9
20260509045846 52 226 0.0 0.0 0.00 0.00 0.00 73 1013.0
20260509045331 52 226 0.0 0.0 0.00 0.00 0.00 72 1013.0
20260509044837 52 226 0.0 0.0 0.00 0.00 0.00 72 1013.0
20260509044323 52 226 0.0 0.0 0.00 0.00 0.00 72 1013.0
20260509043829 52 226 0.0 0.0 0.00 0.00 0.00 71 1013.0
20260509043335 53 226 0.0 0.0 0.00 0.00 0.00 71 1013.1
20260509042820 53 226 0.0 0.0 0.00 0.00 0.00 71 1013.0
20260509042328 53 226 0.0 0.0 0.00 0.00 0.00 70 1012.9
20260509041852 53 226 0.0 0.0 0.00 0.00 0.00 70 1012.9
20260509041336 53 226 0.0 0.0 0.00 0.00 0.00 69 1012.9
20260509040845 54 227 0.0 0.0 0.00 0.00 0.00 68 1012.8
20260509040329 54 226 0.0 0.0 0.00 0.00 0.00 68 1012.8
20260509035826 54 226 0.0 0.0 0.00 0.00 0.00 68 1012.7
20260509035331 54 226 0.0 0.0 0.00 0.00 0.00 68 1012.8
20260509034837 54 226 0.0 0.0 0.00 0.00 0.00 67 1013.0
20260509034322 54 226 0.0 0.0 0.00 0.00 0.00 67 1012.9
20260509033827 55 226 0.0 0.0 0.00 0.00 0.00 66 1012.8
20260509033353 55 226 0.0 0.0 0.00 0.00 0.00 66 1013.0
20260509032838 55 226 0.0 0.0 0.00 0.00 0.00 66 1013.0
20260509032326 55 226 0.0 0.0 0.00 0.00 0.00 66 1013.0
20260509031831 56 226 0.0 0.0 0.00 0.00 0.00 65 1013.0
20260509031336 56 226 0.0 0.0 0.00 0.00 0.00 64 1013.1
20260509030846 56 227 0.0 0.0 0.00 0.00 0.00 65 1013.1
20260509030330 56 227 0.0 0.0 0.00 0.00 0.00 63 1013.2
20260509025826 57 227 0.0 0.0 0.00 0.00 0.00 64 1013.2
20260509025332 57 227 0.0 0.0 0.00 0.00 0.00 62 1013.2
20260509024857 57 227 0.0 0.0 0.00 0.00 0.00 62 1013.3
20260509024323 57 227 0.0 0.0 0.00 0.00 0.00 62 1013.3
20260509023830 57 227 0.0 0.0 0.00 0.00 0.00 62 1013.3
20260509023337 57 226 0.0 0.0 0.00 0.00 0.00 61 1013.2
20260509022823 58 226 0.0 0.0 0.00 0.00 0.00 62 1013.3
20260509022330 58 226 0.0 0.0 0.00 0.00 0.00 61 1013.3
20260509021836 58 226 0.0 0.0 0.00 0.00 0.00 61 1013.3
20260509021326 58 226 0.0 0.0 0.00 0.00 0.00 61 1013.4
20260509020852 59 226 0.0 0.0 0.00 0.00 0.00 59 1013.4
20260509020336 59 226 0.0 0.0 0.00 0.00 0.00 59 1013.4
20260509015833 59 227 0.0 0.0 0.00 0.00 0.00 61 1013.3
20260509015339 60 227 0.0 0.0 0.00 0.00 0.00 59 1013.2
20260509014824 60 226 0.0 0.0 0.00 0.00 0.00 60 1013.3
20260509014331 60 227 0.0 0.0 0.00 0.00 0.00 59 1013.2
20260509013838 60 227 0.0 0.0 0.00 0.00 0.00 58 1013.2
20260509013343 61 226 0.0 0.0 0.00 0.00 0.00 58 1013.2
20260509012849 61 227 0.0 0.0 0.00 0.00 0.00 57 1013.2
20260509012334 61 226 0.0 0.0 0.00 0.00 0.00 57 1013.3
20260509011839 61 226 0.0 0.0 0.00 0.00 0.00 57 1013.1